Dauntless Aviation
Greetings, Guest! To participate, [sign up for a free account] or [log in]
Airports Europe France

Saint Jean d'Angely


Airport Info


Latitude / Longitude: 45°57'59"N / 0°31'31"W
  45°57.984'N / 0°31.518'W
  45.9664 / -0.5253

Runway Information

Runway 10 /28

Dimensions: 2789 x 164 ft.
Surface: U
Runway 10
Runway 28
Latitude: 45.966636 45.965728
Longitude: -0.528086 -0.518369
Elevation: 243 ft. 243 ft.
Runway true heading: 95.7 275.7

Instrument Procedures

IAPs (Instrument Approach Procedures)

  Visual Approch Chart
Satellite photo at:
Airport distance calculator
Weather Reports


20.0nm SE
LFBG 300730Z AUTO 21008KT 9999 FEW014 OVC052 12/11 Q1033
27.2nm W
LFBH 300730Z AUTO 25009KT 9999 SCT037 BKN046 OVC054 13/10 Q1032
34.5nm E
LFBU 300730Z AUTO 20004KT 170V240 9999 BKN006 OVC049 11/10 Q1033


20.0nm SE
TAF AMD LFBG 300630Z 3006/0106 21008KT CAVOK TEMPO 3016/0106 4000 -RADZ BKN015 BKN050
27.2nm W
TAF LFBH 300500Z 3006/0106 25015KT 9999 FEW025 BKN045 PROB40 TEMPO 3006/3010 5000 RA BKN025 TEMPO 3010/3018 25015G25KT TEMPO 3018/0106 BKN015 BECMG 0100/0102 23005KT
34.5nm E
TAF LFBU 300500Z 3006/0106 21008KT 9999 BKN040 PROB30 TEMPO 3006/3009 0500 FG OVC005 TEMPO 0100/0106 0500 FG OVC005


Dauntless Aviation

© 2007-2015 Dauntless Aviation, all rights reserved
Information provided via PilotNav comes from a variety of official and unofficial data sources. As errors are possible, do not use PilotNav for primary flight planning purposes. Verify any information that you receive via PilotNav with current and canonical charts and other official documents. The material in this database is subject to database copyrights held by Dauntless Aviation and may not be copied without the express permission of Dauntless Aviation - licenses for use of part of all of this data are available for purchase; enquire via the Dauntless Aviation helpdesk. A number of mechanisms and markers exist in the database to protect against and identify infringement / copyright. Automated queries against this website are stictly prohibited, and all activity is logged and analyzed.